Starlink 32334

operational
NORAD ID: 62023 Int'l Des: 2024-213 Owner: SPXS Country: US Constellation: starlink
LEOCIRCULAR

Über Starlink 32334

Beschreibung wird geladen...

Live-Position

3D-Globus wird geladen...

Nächste Überflüge

Höhenverlauf

Altitude vs Time

uPlot chart will show altitude changes over time

Zweizeiliger Elementsatz

1 62023U 24213R 25353.25269018 .00013461 00000-0 46588-3 0 9995
2 62023 53.1589 181.4536 0002527 84.2213 275.9076 15.30193616 60849
Epoch: 19. Dez. 2025 • Age: 32 hours

Aktueller Status

Höhe 474.8 km
Geschwindigkeit 7.63 km/s
Subsatellitenpunkt 17.19°N, 40.95°E
Startdatum 18. Nov. 2024
Alter 1 years
Typ internet

Technische Details

Klassifizierung Payload
Masse 730.00 kg
Trockenmasse 700.00 kg
Gesamtmasse 730.00 kg
Länge 0.30 m
Durchmesser 4.10 m
Spannweite 29.00 m
Form Box + pan
Hersteller SPXS
Bus-Typ Starlink V2M
Phasenstatus In Orbit
Besitzer/Staat SPXS/US

Große Konstellationen

Loading constellations...